Ardmore Downtown, OK

7:14 PM CDT on October 19, 2017 (GMT -0500)
Ardmore Downtown

Weather History for K1F0 - March, 2014

Change the Weather History Date:

Saturday, March 29, 2014

  Actual Average (KADM) Record (KADM)
Temperature  
Mean Temperature 54 °F -  
Max Temperature 69 °F 66 °F 83 °F (2015)
Min Temperature 39 °F 47 °F 28 °F (2009)
Degree Days  
Heating Degree Days 11    
Growing Degree Days 4 (Base 50)    
Moisture  
Dew Point 33 °F    
Average Humidity 48    
Maximum Humidity 87    
Minimum Humidity 18    
Precipitation  
Precipitation 0.00 in - - ()
Sea Level Pressure  
Sea Level Pressure 30.22 in    
Wind  
Wind Speed 4 mph (NNE)    
Max Wind Speed 10 mph    
Max Gust Speed -    
Visibility 10 miles    
Events      
Averages and records for this station are not official NWS values.
T = Trace of Precipitation, MM = Missing Value Source: NWS Daily Summary

Daily Weather History Graph

Daily Weather History Graph

Search for Another Location

Airport or City:

Trip Planner

Search our weather history database for the weather conditions in past years. The results will help you decide how hot, cold, wet, or windy it might be!

Date:

Astronomy

Mar. 29, 2014 Rise Set
Actual Time 7:19 AM CDT 7:47 PM CDT
Civil Twilight 6:54 AM CDT 8:12 PM CDT
Nautical Twilight 6:25 AM CDT 8:41 PM CDT
Astronomical Twilight 5:55 AM CDT 9:11 PM CDT
Moon 6:26 AM CDT (3/29) 6:55 PM CDT (3/29)
Length of Visible Light 13h 17m
Length of Day
12h 27m
Waning Crescent, 2% of the Moon is Illuminated
Mar 29
Waning Crescent
Mar 30
New
Apr 7
First Quarter
Apr 15
Full
Apr 22
Last Quarter

Hourly Weather History & Observations

Time (CDT) Temp. Windchill Dew Point Humidity Pressure Visibility Wind Dir Wind Speed Gust Speed Precip Events Conditions
12:15 AM 50.0 °F - 37.4 °F 62% 30.11 in 10.0 mi NNE 8.1 mph - N/A   Unknown
12:35 AM 50.0 °F - 35.6 °F 58% 30.12 in 10.0 mi NNE 5.8 mph - N/A   Unknown
12:55 AM 50.0 °F - 35.6 °F 58% 30.12 in 10.0 mi North 3.5 mph - N/A   Unknown
1:15 AM 48.2 °F - 35.6 °F 62% 30.14 in 10.0 mi North 4.6 mph - N/A   Unknown
1:35 AM 48.2 °F - 35.6 °F 62% 30.13 in 10.0 mi North 3.5 mph - N/A   Unknown
1:55 AM 46.4 °F 44.3 °F 35.6 °F 66% 30.13 in 10.0 mi North 4.6 mph - N/A   Unknown
2:15 AM 46.4 °F 44.3 °F 35.6 °F 66% 30.13 in 10.0 mi NNE 4.6 mph - N/A   Unknown
2:35 AM 46.4 °F 43.5 °F 35.6 °F 66% 30.13 in 10.0 mi NNE 5.8 mph - N/A   Unknown
2:55 AM 46.4 °F 43.5 °F 35.6 °F 66% 30.14 in 10.0 mi NNE 5.8 mph - N/A   Unknown
3:15 AM 44.6 °F - 35.6 °F 71% 30.14 in 10.0 mi Calm Calm - N/A   Unknown
3:35 AM 44.6 °F - 35.6 °F 71% 30.15 in 10.0 mi Calm Calm - N/A   Unknown
3:55 AM 44.6 °F - 35.6 °F 71% 30.16 in 10.0 mi Calm Calm - N/A   Unknown
4:15 AM 42.8 °F - 35.6 °F 76% 30.17 in 10.0 mi Calm Calm - N/A   Unknown
4:35 AM 42.8 °F - 35.6 °F 76% 30.18 in 10.0 mi Calm Calm - N/A   Unknown
4:55 AM 42.8 °F - 35.6 °F 76% 30.18 in 10.0 mi Calm Calm - N/A   Unknown
5:15 AM 42.8 °F - 35.6 °F 76% 30.19 in 10.0 mi Calm Calm - N/A   Unknown
5:35 AM 42.8 °F - 35.6 °F 76% 30.20 in 10.0 mi Calm Calm - N/A   Unknown
5:55 AM 42.8 °F - 35.6 °F 76% 30.21 in 10.0 mi Calm Calm - N/A   Unknown
6:15 AM 41.0 °F - 35.6 °F 81% 30.23 in 10.0 mi Calm Calm - N/A   Unknown
6:35 AM 41.0 °F - 35.6 °F 81% 30.23 in 10.0 mi Calm Calm - N/A   Unknown
6:55 AM 39.2 °F - 35.6 °F 87% 30.25 in 10.0 mi Calm Calm - N/A   Unknown
7:15 AM 39.2 °F 37.0 °F 35.6 °F 87% 30.25 in 7.0 mi NNW 3.5 mph - N/A   Unknown
7:35 AM 41.0 °F - 35.6 °F 81% 30.25 in 7.0 mi Calm Calm - N/A   Unknown
7:55 AM 42.8 °F 41.1 °F 35.6 °F 76% 30.26 in 7.0 mi North 3.5 mph - N/A   Unknown
8:15 AM 44.6 °F 43.1 °F 35.6 °F 71% 30.26 in 7.0 mi North 3.5 mph - N/A   Unknown
8:35 AM 46.4 °F 43.5 °F 35.6 °F 66% 30.27 in 10.0 mi North 5.8 mph - N/A   Unknown
8:55 AM 46.4 °F 43.5 °F 37.4 °F 71% 30.27 in 10.0 mi NE 5.8 mph - N/A   Unknown
9:15 AM 48.2 °F - 37.4 °F 66% 30.28 in 7.0 mi NE 5.8 mph - N/A   Unknown
9:35 AM 50.0 °F - 37.4 °F 62% 30.28 in 10.0 mi NNE 9.2 mph - N/A   Unknown
9:55 AM 51.8 °F - 37.4 °F 58% 30.28 in 10.0 mi NNE 9.2 mph - N/A   Unknown
10:15 AM 55.4 °F - 37.4 °F 51% 30.28 in 10.0 mi NE 10.4 mph - N/A   Unknown
10:35 AM 57.2 °F - 35.6 °F 44% 30.29 in 10.0 mi NNE 6.9 mph - N/A   Unknown
10:55 AM 59.0 °F - 35.6 °F 42% 30.29 in 10.0 mi NE 9.2 mph - N/A   Unknown
11:15 AM 59.0 °F - 35.6 °F 42% 30.29 in 10.0 mi NE 8.1 mph - N/A   Unknown
11:35 AM 60.8 °F - 35.6 °F 39% 30.30 in 10.0 mi NE 5.8 mph - N/A   Unknown
11:55 AM 62.6 °F - 33.8 °F 34% 30.30 in 10.0 mi North 4.6 mph - N/A   Unknown
12:15 PM 62.6 °F - 33.8 °F 34% 30.30 in 10.0 mi NNE 3.5 mph - N/A   Unknown
12:35 PM 64.4 °F - 32.0 °F 30% 30.30 in 10.0 mi NNE 6.9 mph - N/A   Unknown
12:55 PM 64.4 °F - 32.0 °F 30% 30.29 in 10.0 mi NW 5.8 mph - N/A   Unknown
1:15 PM 64.4 °F - 32.0 °F 30% 30.29 in 10.0 mi North 5.8 mph - N/A   Unknown
1:35 PM 68.0 °F - 32.0 °F 26% 30.28 in 10.0 mi NNE 8.1 mph - N/A   Unknown
1:55 PM 68.0 °F - 32.0 °F 26% 30.27 in 10.0 mi NE 9.2 mph - N/A   Unknown
2:15 PM 68.0 °F - 32.0 °F 26% 30.26 in 10.0 mi NNE 9.2 mph - N/A   Unknown
2:35 PM 68.0 °F - 30.2 °F 24% 30.25 in 10.0 mi NE 3.5 mph - N/A   Unknown
2:55 PM 69.8 °F - 30.2 °F 23% 30.25 in 10.0 mi North 6.9 mph - N/A   Unknown
3:15 PM 69.8 °F - 28.4 °F 21% 30.23 in 10.0 mi North 3.5 mph - N/A   Unknown
3:35 PM 69.8 °F - 28.4 °F 21% 30.22 in 10.0 mi WNW 6.9 mph - N/A   Unknown
3:55 PM 69.8 °F - 28.4 °F 21% 30.22 in 10.0 mi NNW 5.8 mph - N/A   Unknown
4:15 PM 69.8 °F - 26.6 °F 20% 30.21 in 10.0 mi Calm Calm - N/A   Unknown
4:35 PM 69.8 °F - 28.4 °F 21% 30.21 in 10.0 mi NE 4.6 mph - N/A   Unknown
4:55 PM 69.8 °F - 26.6 °F 20% 30.20 in 10.0 mi NE 3.5 mph - N/A   Unknown
5:15 PM 69.8 °F - 24.8 °F 18% 30.20 in 10.0 mi North 4.6 mph - N/A   Unknown
5:35 PM 69.8 °F - 24.8 °F 18% 30.19 in 10.0 mi Calm Calm - N/A   Unknown
5:55 PM 69.8 °F - 26.6 °F 20% 30.19 in 10.0 mi NW 3.5 mph - N/A   Unknown
6:15 PM 69.8 °F - 24.8 °F 18% 30.19 in 10.0 mi Calm Calm - N/A   Unknown
6:35 PM 69.8 °F - 24.8 °F 18% 30.19 in 10.0 mi North 4.6 mph - N/A   Unknown
6:55 PM 69.8 °F - 24.8 °F 18% 30.19 in 10.0 mi Calm Calm - N/A   Unknown
7:15 PM 68.0 °F - 26.6 °F 21% 30.19 in 10.0 mi Calm Calm - N/A   Unknown
7:35 PM 64.4 °F - 26.6 °F 24% 30.18 in 10.0 mi Calm Calm - N/A   Unknown
7:55 PM 62.6 °F - 28.4 °F 27% 30.18 in 10.0 mi Calm Calm - N/A   Unknown
8:15 PM 59.0 °F - 30.2 °F 34% 30.18 in 10.0 mi Calm Calm - N/A   Unknown
8:35 PM 60.8 °F - 30.2 °F 31% 30.19 in 10.0 mi Calm Calm - N/A   Unknown
8:55 PM 59.0 °F - 30.2 °F 34% 30.19 in 10.0 mi Calm Calm - N/A   Unknown
9:15 PM 55.4 °F - 30.2 °F 38% 30.20 in 10.0 mi Calm Calm - N/A   Unknown
9:35 PM 55.4 °F - 30.2 °F 38% 30.20 in 10.0 mi Calm Calm - N/A   Unknown
9:55 PM 53.6 °F - 30.2 °F 41% 30.21 in 10.0 mi Calm Calm - N/A   Unknown
10:15 PM 53.6 °F - 30.2 °F 41% 30.21 in 10.0 mi Calm Calm - N/A   Unknown
10:35 PM 53.6 °F - 32.0 °F 44% 30.21 in 10.0 mi Calm Calm - N/A   Unknown
10:55 PM 53.6 °F - 32.0 °F 44% 30.22 in 10.0 mi Calm Calm - N/A   Unknown
11:15 PM 50.0 °F - 33.8 °F 54% 30.22 in 10.0 mi Calm Calm - N/A   Unknown
11:35 PM 51.8 °F - 32.0 °F 47% 30.22 in 10.0 mi Calm Calm - N/A   Unknown
11:55 PM 51.8 °F - 32.0 °F 47% 30.22 in 10.0 mi Calm Calm - N/A   Unknown